map of CRD home
CRD - Airport
Location
City:  Comodoro Rivadavia, Chubut, Argentina
Name:General Enrique Mosconi International Airport
ICAO:SAVC
IATA:CRD

Details
Type:Airport (Aerodrome, Airfield)
Use:Public/Civil, Military, International (customs port of entry)
Latitude:4547'07"S (-45.785346)
Longitude:6727'56"W (-67.465507)
Datum:WGS 1984
Elevation:190 ft (58 m)
Variation:6.34E (WMM2015 magnetic declination)
-0.11 annual change
Runways:1
Longest:9275 × 164 ft (2827 × 50 m), paved

Time
Time Zone:UTC-3
Local Time:

Weather
METAR:SAVC 190100Z 29017KT CAVOK 08/M03 Q0992
TAF:SAVC 182300Z 1900/1924 29020G30KT CAVOK TX14/1919Z TN03/1912Z
BECMG 1903/1905 25025G40KT

Related Locations
Nearby:
Farthest:UUN: 12362 mi / 19894 km
Baruun-Urt [Baruun-Urt Airport], 051, MN

Find:

   beyond  
but within

Other Information
Maps:
NOTAMs:
Links:
Sources:

  
flag of Argentina
flag of Chubut
  

Sectional Chart

Flight Planning
at skyvector.com

Satellite Image

Google Maps Satellite view

 

Copyright © 2004-2017 Karl L. Swartz. All rights reserved.
The Great Circle Mapper name and logo are trademarks of the Great Circle Mapper.
All other trademarks mentioned herein belong to their respective owners.
Please see credits for attibutions and further copyright information.

  Follow gcmap on Facebook Follow gcmap on Twitter Follow gcmap on Google+ GCmap on LinkedIn

hCard Microformat

Geo Microformat